Time,TemperatureF,DewpointF,PressureIn,WindDirection,WindDirectionDegrees,WindSpeedMPH,WindSpeedGustMPH,Humidity,HourlyPrecipIn,Conditions,Clouds,dailyrainin,SoftwareType,DateUTC
2013-06-19 00:01:00,65.0,53.0,-100.00,ENE,70,7.0,11.0,65,-99.99,,,-99.99,,2013-06-19 05:01:00,
2013-06-19 00:11:00,65.0,53.0,-100.00,ENE,75,4.0,9.0,67,-99.99,,,-99.99,,2013-06-19 05:11:00,
2013-06-19 00:22:00,65.0,53.0,-100.00,ENE,75,4.0,9.0,67,-99.99,,,-99.99,,2013-06-19 05:22:00,
2013-06-19 00:32:00,64.0,54.0,-100.00,ENE,60,4.0,7.0,69,-99.99,,,-99.99,,2013-06-19 05:32:00,
2013-06-19 00:42:00,63.0,54.0,-100.00,ENE,60,4.0,7.0,71,-99.99,,,-99.99,,2013-06-19 05:42:00,
2013-06-19 00:52:00,63.0,54.0,-100.00,ENE,60,4.0,7.0,71,-99.99,,,-99.99,,2013-06-19 05:52:00,
2013-06-19 01:02:00,63.0,54.0,-100.00,NE,55,5.0,9.0,72,-99.99,,,-99.99,,2013-06-19 06:02:00,
2013-06-19 01:11:00,63.0,53.0,-100.00,ENE,60,4.0,8.0,72,-99.99,,,-99.99,,2013-06-19 06:11:00,
2013-06-19 01:22:00,63.0,53.0,-100.00,ENE,60,4.0,8.0,72,-99.99,,,-99.99,,2013-06-19 06:22:00,
2013-06-19 01:33:00,63.0,53.0,-100.00,ENE,60,4.0,8.0,72,-99.99,,,-99.99,,2013-06-19 06:33:00,
2013-06-19 01:42:00,62.0,52.0,-100.00,ENE,60,4.0,9.0,71,-99.99,,,-99.99,,2013-06-19 06:42:00,
2013-06-19 01:52:00,62.0,52.0,-100.00,ENE,60,4.0,9.0,71,-99.99,,,-99.99,,2013-06-19 06:52:00,
2013-06-19 02:01:00,61.0,51.0,-100.00,ENE,60,4.0,8.0,70,-99.99,,,-99.99,,2013-06-19 07:01:00,
2013-06-19 02:11:00,60.0,51.0,-100.00,ENE,60,4.0,7.0,71,-99.99,,,-99.99,,2013-06-19 07:11:00,
2013-06-19 02:22:00,60.0,51.0,-100.00,ENE,60,4.0,7.0,71,-99.99,,,-99.99,,2013-06-19 07:22:00,
2013-06-19 02:33:00,60.0,50.0,-100.00,ENE,60,5.0,9.0,70,-99.99,,,-99.99,,2013-06-19 07:33:00,
2013-06-19 02:43:00,60.0,49.0,-100.00,ENE,60,5.0,9.0,68,-99.99,,,-99.99,,2013-06-19 07:43:00,
2013-06-19 02:53:00,60.0,49.0,-100.00,ENE,60,5.0,9.0,68,-99.99,,,-99.99,,2013-06-19 07:53:00,
2013-06-19 03:02:00,60.0,49.0,-100.00,NE,55,4.0,8.0,67,-99.99,,,-99.99,,2013-06-19 08:02:00,
2013-06-19 03:11:00,59.0,48.0,-100.00,NE,35,5.0,7.0,67,-99.99,,,-99.99,,2013-06-19 08:11:00,
2013-06-19 03:22:00,59.0,48.0,-100.00,NE,35,5.0,7.0,67,-99.99,,,-99.99,,2013-06-19 08:22:00,
2013-06-19 03:33:00,59.0,49.0,-100.00,NE,45,4.0,8.0,69,-99.99,,,-99.99,,2013-06-19 08:33:00,
2013-06-19 03:43:00,59.0,49.0,-100.00,NE,45,5.0,8.0,71,-99.99,,,-99.99,,2013-06-19 08:43:00,
2013-06-19 03:54:00,59.0,49.0,-100.00,NE,45,5.0,8.0,71,-99.99,,,-99.99,,2013-06-19 08:54:00,
2013-06-19 04:02:00,58.0,49.0,-100.00,ENE,65,3.0,5.0,72,-99.99,,,-99.99,,2013-06-19 09:02:00,
2013-06-19 04:11:00,58.0,49.0,-100.00,NE,45,1.0,4.0,73,-99.99,,,-99.99,,2013-06-19 09:11:00,
2013-06-19 04:22:00,58.0,49.0,-100.00,NE,45,1.0,4.0,73,-99.99,,,-99.99,,2013-06-19 09:22:00,
2013-06-19 04:34:00,57.0,49.0,-100.00,NE,45,2.0,4.0,74,-99.99,,,-99.99,,2013-06-19 09:34:00,
2013-06-19 04:43:00,57.0,49.0,-100.00,NNE,25,3.0,4.0,75,-99.99,,,-99.99,,2013-06-19 09:43:00,
2013-06-19 04:53:00,57.0,49.0,-100.00,NNE,25,3.0,4.0,75,-99.99,,,-99.99,,2013-06-19 09:53:00,
2013-06-19 05:02:00,57.0,49.0,-100.00,NE,40,4.0,5.0,75,-99.99,,,-99.99,,2013-06-19 10:02:00,
2013-06-19 05:12:00,57.0,49.0,-100.00,NE,45,4.0,6.0,75,-99.99,,,-99.99,,2013-06-19 10:12:00,
2013-06-19 05:22:00,57.0,49.0,-100.00,NE,45,4.0,6.0,75,-99.99,,,-99.99,,2013-06-19 10:22:00,
2013-06-19 05:33:00,57.0,49.0,-100.00,NE,35,4.0,6.0,76,-99.99,,,-99.99,,2013-06-19 10:33:00,
2013-06-19 05:42:00,56.0,49.0,-100.00,NE,40,4.0,6.0,76,-99.99,,,-99.99,,2013-06-19 10:42:00,
2013-06-19 05:53:00,56.0,49.0,-100.00,NE,40,4.0,6.0,76,-99.99,,,-99.99,,2013-06-19 10:53:00,
2013-06-19 06:02:00,56.0,49.0,-100.00,NE,50,4.0,6.0,78,-99.99,,,-99.99,,2013-06-19 11:02:00,
2013-06-19 06:11:00,56.0,50.0,-100.00,NNE,15,3.0,5.0,78,-99.99,,,-99.99,,2013-06-19 11:11:00,
2013-06-19 06:22:00,56.0,50.0,-100.00,NNE,15,3.0,5.0,78,-99.99,,,-99.99,,2013-06-19 11:22:00,
2013-06-19 06:33:00,57.0,50.0,-100.00,North,10,3.0,5.0,77,-99.99,,,-99.99,,2013-06-19 11:33:00,
2013-06-19 06:42:00,58.0,50.0,-100.00,NNE,30,4.0,5.0,76,-99.99,,,-99.99,,2013-06-19 11:42:00,
2013-06-19 06:54:00,58.0,50.0,-100.00,NNE,30,4.0,5.0,76,-99.99,,,-99.99,,2013-06-19 11:54:00,
2013-06-19 07:02:00,59.0,51.0,-100.00,NE,50,4.0,6.0,74,-99.99,,,-99.99,,2013-06-19 12:02:00,
2013-06-19 07:12:00,60.0,51.0,-100.00,NE,55,5.0,7.0,72,-99.99,,,-99.99,,2013-06-19 12:12:00,
2013-06-19 07:22:00,60.0,51.0,-100.00,NE,55,5.0,7.0,72,-99.99,,,-99.99,,2013-06-19 12:22:00,
2013-06-19 07:34:00,61.0,52.0,-100.00,NE,55,6.0,9.0,71,-99.99,,,-99.99,,2013-06-19 12:34:00,
2013-06-19 07:44:00,62.0,52.0,-100.00,ENE,65,7.0,9.0,71,-99.99,,,-99.99,,2013-06-19 12:44:00,
2013-06-19 07:53:00,62.0,52.0,-100.00,ENE,65,7.0,9.0,71,-99.99,,,-99.99,,2013-06-19 12:53:00,
2013-06-19 08:02:00,63.0,53.0,-100.00,East,80,4.0,9.0,70,-99.99,,,-99.99,,2013-06-19 13:02:00,
2013-06-19 08:12:00,64.0,53.0,-100.00,ENE,75,6.0,9.0,69,-99.99,,,-99.99,,2013-06-19 13:12:00,
2013-06-19 08:22:00,64.0,53.0,-100.00,ENE,75,6.0,9.0,69,-99.99,,,-99.99,,2013-06-19 13:22:00,
2013-06-19 08:33:00,65.0,54.0,-100.00,ENE,75,4.0,8.0,68,-99.99,,,-99.99,,2013-06-19 13:33:00,
2013-06-19 08:42:00,67.0,55.0,-100.00,NNE,30,2.0,6.0,66,-99.99,,,-99.99,,2013-06-19 13:42:00,
2013-06-19 08:54:00,67.0,55.0,-100.00,NNE,30,2.0,6.0,66,-99.99,,,-99.99,,2013-06-19 13:54:00,
2013-06-19 09:02:00,68.0,56.0,-100.00,ESE,105,3.0,5.0,65,-99.99,,,-99.99,,2013-06-19 14:02:00,
2013-06-19 09:12:00,68.0,56.0,-100.00,ENE,75,3.0,6.0,64,-99.99,,,-99.99,,2013-06-19 14:12:00,
2013-06-19 09:22:00,68.0,56.0,-100.00,ENE,75,3.0,6.0,64,-99.99,,,-99.99,,2013-06-19 14:22:00,
2013-06-19 09:33:00,70.0,56.0,-100.00,East,100,4.0,5.0,63,-99.99,,,-99.99,,2013-06-19 14:33:00,
2013-06-19 09:43:00,71.0,57.0,-100.00,East,100,3.0,5.0,63,-99.99,,,-99.99,,2013-06-19 14:43:00,
2013-06-19 09:53:00,71.0,57.0,-100.00,East,100,3.0,5.0,63,-99.99,,,-99.99,,2013-06-19 14:53:00,
2013-06-19 10:01:00,71.0,57.0,-100.00,ESE,110,4.0,5.0,62,-99.99,,,-99.99,,2013-06-19 15:01:00,
2013-06-19 10:11:00,72.0,59.0,-100.00,ENE,70,1.0,5.0,63,-99.99,,,-99.99,,2013-06-19 15:11:00,
2013-06-19 10:22:00,72.0,59.0,-100.00,ENE,70,1.0,5.0,63,-99.99,,,-99.99,,2013-06-19 15:22:00,
2013-06-19 10:33:00,73.0,59.0,-100.00,East,95,2.0,4.0,61,-99.99,,,-99.99,,2013-06-19 15:33:00,
2013-06-19 10:42:00,75.0,60.0,-100.00,NNE,30,2.0,4.0,60,-99.99,,,-99.99,,2013-06-19 15:42:00,
2013-06-19 10:53:00,75.0,60.0,-100.00,NNE,30,2.0,4.0,60,-99.99,,,-99.99,,2013-06-19 15:53:00,
2013-06-19 11:01:00,75.0,59.0,-100.00,East,95,2.0,6.0,59,-99.99,,,-99.99,,2013-06-19 16:01:00,
2013-06-19 11:11:00,76.0,60.0,-100.00,East,95,1.0,4.0,57,-99.99,,,-99.99,,2013-06-19 16:11:00,
2013-06-19 11:22:00,76.0,60.0,-100.00,East,95,1.0,4.0,57,-99.99,,,-99.99,,2013-06-19 16:22:00,
2013-06-19 11:34:00,77.0,60.0,-100.00,ESE,115,1.0,6.0,57,-99.99,,,-99.99,,2013-06-19 16:34:00,
2013-06-19 11:43:00,78.0,61.0,-100.00,ENE,60,4.0,6.0,56,-99.99,,,-99.99,,2013-06-19 16:43:00,
2013-06-19 11:53:00,78.0,61.0,-100.00,ENE,60,4.0,6.0,56,-99.99,,,-99.99,,2013-06-19 16:53:00,
2013-06-19 12:02:00,78.0,60.0,-100.00,ESE,110,3.0,6.0,55,-99.99,,,-99.99,,2013-06-19 17:02:00,
2013-06-19 12:12:00,79.0,60.0,-100.00,ENE,60,2.0,4.0,53,-99.99,,,-99.99,,2013-06-19 17:12:00,
2013-06-19 12:22:00,79.0,60.0,-100.00,ENE,60,2.0,4.0,53,-99.99,,,-99.99,,2013-06-19 17:22:00,
2013-06-19 12:34:00,79.0,58.0,-100.00,ESE,110,4.0,5.0,48,-99.99,,,-99.99,,2013-06-19 17:34:00,
2013-06-19 12:43:00,80.0,59.0,-100.00,SE,140,2.0,5.0,48,-99.99,,,-99.99,,2013-06-19 17:43:00,
2013-06-19 12:53:00,80.0,59.0,-100.00,SE,140,2.0,5.0,48,-99.99,,,-99.99,,2013-06-19 17:53:00,
2013-06-19 13:02:00,80.0,56.0,-100.00,SSE,165,2.0,5.0,44,-99.99,,,-99.99,,2013-06-19 18:02:00,
2013-06-19 13:11:00,82.0,55.0,-100.00,SE,140,0.0,5.0,40,-99.99,,,-99.99,,2013-06-19 18:11:00,
2013-06-19 13:24:00,82.0,55.0,-100.00,SE,140,0.0,5.0,40,-99.99,,,-99.99,,2013-06-19 18:24:00,
2013-06-19 13:33:00,81.0,56.0,-100.00,ENE,70,1.0,4.0,42,-99.99,,,-99.99,,2013-06-19 18:33:00,
2013-06-19 13:44:00,81.0,56.0,-100.00,East,85,2.0,6.0,41,-99.99,,,-99.99,,2013-06-19 18:44:00,
2013-06-19 13:53:00,81.0,56.0,-100.00,East,85,2.0,6.0,41,-99.99,,,-99.99,,2013-06-19 18:53:00,
2013-06-19 14:01:00,82.0,53.0,-100.00,East,85,2.0,5.0,37,-99.99,,,-99.99,,2013-06-19 19:01:00,
2013-06-19 14:12:00,83.0,54.0,-100.00,North,350,1.0,4.0,37,-99.99,,,-99.99,,2013-06-19 19:12:00,
2013-06-19 14:22:00,83.0,54.0,-100.00,North,350,1.0,4.0,37,-99.99,,,-99.99,,2013-06-19 19:22:00,
2013-06-19 14:32:00,82.0,53.0,-100.00,ESE,105,2.0,7.0,37,-99.99,,,-99.99,,2013-06-19 19:32:00,
2013-06-19 14:43:00,83.0,52.0,-100.00,East,85,4.0,6.0,35,-99.99,,,-99.99,,2013-06-19 19:43:00,
2013-06-19 14:53:00,83.0,52.0,-100.00,East,85,4.0,6.0,35,-99.99,,,-99.99,,2013-06-19 19:53:00,
2013-06-19 15:02:00,85.0,54.0,-100.00,ENE,65,2.0,4.0,35,-99.99,,,-99.99,,2013-06-19 20:02:00,
2013-06-19 15:11:00,85.0,55.0,-100.00,ENE,70,1.0,4.0,36,-99.99,,,-99.99,,2013-06-19 20:11:00,
2013-06-19 15:22:00,85.0,55.0,-100.00,ENE,70,1.0,4.0,36,-99.99,,,-99.99,,2013-06-19 20:22:00,
2013-06-19 15:33:00,84.0,53.0,-100.00,East,85,2.0,5.0,35,-99.99,,,-99.99,,2013-06-19 20:33:00,
2013-06-19 15:42:00,84.0,52.0,-100.00,WNW,290,1.0,6.0,34,-99.99,,,-99.99,,2013-06-19 20:42:00,
2013-06-19 15:52:00,84.0,52.0,-100.00,WNW,290,1.0,6.0,34,-99.99,,,-99.99,,2013-06-19 20:52:00,
2013-06-19 16:02:00,84.0,53.0,-100.00,East,90,1.0,4.0,34,-99.99,,,-99.99,,2013-06-19 21:02:00,
2013-06-19 16:11:00,85.0,53.0,-100.00,West,275,1.0,2.0,33,-99.99,,,-99.99,,2013-06-19 21:11:00,
2013-06-19 16:22:00,85.0,53.0,-100.00,West,275,1.0,2.0,33,-99.99,,,-99.99,,2013-06-19 21:22:00,
2013-06-19 16:33:00,86.0,53.0,-100.00,West,275,1.0,4.0,33,-99.99,,,-99.99,,2013-06-19 21:33:00,
2013-06-19 16:44:00,86.0,54.0,-100.00,North,0,2.0,5.0,34,-99.99,,,-99.99,,2013-06-19 21:44:00,
2013-06-19 16:52:00,86.0,54.0,-100.00,North,0,2.0,5.0,34,-99.99,,,-99.99,,2013-06-19 21:52:00,
2013-06-19 17:02:00,85.0,54.0,-100.00,ESE,110,2.0,5.0,34,-99.99,,,-99.99,,2013-06-19 22:02:00,
2013-06-19 17:11:00,85.0,55.0,-100.00,East,100,3.0,5.0,36,-99.99,,,-99.99,,2013-06-19 22:11:00,
2013-06-19 17:22:00,85.0,55.0,-100.00,East,100,3.0,5.0,36,-99.99,,,-99.99,,2013-06-19 22:22:00,
2013-06-19 17:34:00,84.0,54.0,-100.00,ESE,110,4.0,4.0,36,-99.99,,,-99.99,,2013-06-19 22:34:00,
2013-06-19 17:43:00,85.0,54.0,-100.00,SE,130,2.0,5.0,35,-99.99,,,-99.99,,2013-06-19 22:43:00,
2013-06-19 17:53:00,85.0,54.0,-100.00,SE,130,2.0,5.0,35,-99.99,,,-99.99,,2013-06-19 22:53:00,
2013-06-19 18:02:00,85.0,55.0,-100.00,ESE,105,4.0,5.0,36,-99.99,,,-99.99,,2013-06-19 23:02:00,
2013-06-19 18:12:00,85.0,54.0,-100.00,WNW,295,3.0,4.0,35,-99.99,,,-99.99,,2013-06-19 23:12:00,
2013-06-19 18:23:00,85.0,54.0,-100.00,WNW,295,3.0,4.0,35,-99.99,,,-99.99,,2013-06-19 23:23:00,
2013-06-19 18:33:00,84.0,54.0,-100.00,West,265,2.0,4.0,36,-99.99,,,-99.99,,2013-06-19 23:33:00,
2013-06-19 18:43:00,85.0,54.0,-100.00,SW,225,1.0,3.0,35,-99.99,,,-99.99,,2013-06-19 23:43:00,
2013-06-19 18:52:00,85.0,54.0,-100.00,SW,225,1.0,3.0,35,-99.99,,,-99.99,,2013-06-19 23:52:00,
2013-06-19 19:01:00,85.0,53.0,-100.00,SSE,155,1.0,4.0,34,-99.99,,,-99.99,,2013-06-20 00:01:00,
2013-06-19 19:12:00,85.0,54.0,-100.00,WSW,245,2.0,4.0,35,-99.99,,,-99.99,,2013-06-20 00:12:00,
2013-06-19 19:22:00,85.0,54.0,-100.00,WSW,245,2.0,4.0,35,-99.99,,,-99.99,,2013-06-20 00:22:00,
2013-06-19 19:33:00,85.0,54.0,-100.00,WSW,245,2.0,4.0,35,-99.99,,,-99.99,,2013-06-20 00:33:00,
2013-06-19 19:44:00,82.0,53.0,-100.00,SW,215,1.0,2.0,36,-99.99,,,-99.99,,2013-06-20 00:44:00,
2013-06-19 19:52:00,82.0,53.0,-100.00,SW,215,1.0,2.0,36,-99.99,,,-99.99,,2013-06-20 00:52:00,
2013-06-19 20:02:00,81.0,52.0,-100.00,SW,215,2.0,2.0,37,-99.99,,,-99.99,,2013-06-20 01:02:00,
2013-06-19 20:11:00,80.0,52.0,-100.00,SSW,195,2.0,3.0,38,-99.99,,,-99.99,,2013-06-20 01:11:00,
2013-06-19 20:22:00,80.0,52.0,-100.00,SSW,195,2.0,3.0,38,-99.99,,,-99.99,,2013-06-20 01:22:00,
2013-06-19 20:33:00,80.0,53.0,-100.00,SSW,210,1.0,2.0,40,-99.99,,,-99.99,,2013-06-20 01:33:00,
2013-06-19 20:44:00,78.0,53.0,-100.00,East,100,0.0,1.0,42,-99.99,,,-99.99,,2013-06-20 01:44:00,
2013-06-19 20:53:00,78.0,53.0,-100.00,East,100,0.0,1.0,42,-99.99,,,-99.99,,2013-06-20 01:53:00,
2013-06-19 21:02:00,77.0,54.0,-100.00,ENE,75,1.0,2.0,44,-99.99,,,-99.99,,2013-06-20 02:02:00,
2013-06-19 21:11:00,76.0,55.0,-100.00,East,95,1.0,2.0,47,-99.99,,,-99.99,,2013-06-20 02:11:00,
2013-06-19 21:24:00,76.0,55.0,-100.00,East,95,1.0,2.0,47,-99.99,,,-99.99,,2013-06-20 02:24:00,
2013-06-19 21:34:00,76.0,55.0,-100.00,East,100,3.0,4.0,48,-99.99,,,-99.99,,2013-06-20 02:34:00,
2013-06-19 21:43:00,74.0,56.0,-100.00,East,100,2.0,3.0,53,-99.99,,,-99.99,,2013-06-20 02:43:00,
2013-06-19 21:52:00,74.0,56.0,-100.00,East,100,2.0,3.0,53,-99.99,,,-99.99,,2013-06-20 02:52:00,
2013-06-19 22:02:00,74.0,56.0,-100.00,East,100,2.0,4.0,52,-99.99,,,-99.99,,2013-06-20 03:02:00,
2013-06-19 22:11:00,74.0,55.0,-100.00,East,100,1.0,2.0,52,-99.99,,,-99.99,,2013-06-20 03:11:00,
2013-06-19 22:22:00,74.0,55.0,-100.00,East,100,1.0,2.0,52,-99.99,,,-99.99,,2013-06-20 03:22:00,
2013-06-19 22:33:00,74.0,55.0,-100.00,East,90,2.0,2.0,53,-99.99,,,-99.99,,2013-06-20 03:33:00,
2013-06-19 22:43:00,72.0,57.0,-100.00,East,90,4.0,5.0,59,-99.99,,,-99.99,,2013-06-20 03:43:00,
2013-06-19 22:54:00,72.0,57.0,-100.00,East,90,4.0,5.0,59,-99.99,,,-99.99,,2013-06-20 03:54:00,
2013-06-19 23:02:00,71.0,57.0,-100.00,East,80,3.0,4.0,61,-99.99,,,-99.99,,2013-06-20 04:02:00,
2013-06-19 23:11:00,71.0,58.0,-100.00,ENE,75,3.0,4.0,63,-99.99,,,-99.99,,2013-06-20 04:11:00,
2013-06-19 23:22:00,71.0,58.0,-100.00,ENE,75,3.0,4.0,63,-99.99,,,-99.99,,2013-06-20 04:22:00,
2013-06-19 23:34:00,71.0,58.0,-100.00,East,80,3.0,4.0,63,-99.99,,,-99.99,,2013-06-20 04:34:00,
2013-06-19 23:43:00,70.0,58.0,-100.00,NE,55,2.0,4.0,65,-99.99,,,-99.99,,2013-06-20 04:43:00,
2013-06-19 23:54:00,70.0,58.0,-100.00,NE,55,2.0,4.0,65,-99.99,,,-99.99,,2013-06-20 04:54:00,